カタログに戻る

STARLINK-3883

運用中通信VLEO
NORAD 52493·PAYLOAD·🇺🇸 United States

打ち上げ May 6, 2022 から Cape Canaveral Space Force Station

Loading…

次のパス (今後24時間)

TLE

最新Source: CelesTrak SupGP

元期: Sep 14, 2026, 20:59 UTC

1 52493C 22049AU  26257.87479167  .00042872  00000+0  12266-2 0  2579
2 52493  53.1586 270.3217 0001289  86.0440 125.0005 15.35377255    14

AllMySatでSTARLINK-3883をリアルタイム追跡

Download on the App Store